カタログに戻る

DELTA 2 R/B(2)

運用中HEO
NORAD 26115·ROCKET BODY·🇺🇸 United States

打ち上げ Mar 25, 2000 から Vandenberg Space Force Base

Loading…

次のパス (今後24時間)

TLE

最新Source: Space-Track

元期: Sep 14, 2026, 01:06 UTC

1 26115U 00017C   26257.04589498  .00000109  00000-0  16582-1 0  9995
2 26115  94.2651 316.6581 7394625 280.6665  11.0868  1.68225559162593

AllMySatでDELTA 2 R/B(2)をリアルタイム追跡

Download on the App Store